Time,TemperatureF,DewpointF,PressureIn,WindDirection,WindDirectionDegrees,WindSpeedMPH,WindSpeedGustMPH,Humidity,HourlyPrecipIn,Conditions,Clouds,dailyrainin,SoftwareType,DateUTC
2013-01-07 00:03:00,45.7,42.4,30.22,NE,45,0.0,-999.0,88,-99.99,,,0.00,Acu-Link.com,2013-01-07 06:03:00,
2013-01-07 00:19:00,45.0,42.5,30.21,NNE,22,0.0,-999.0,91,-99.99,,,0.00,Acu-Link.com,2013-01-07 06:19:00,
2013-01-07 00:34:00,44.4,42.5,30.21,SW,225,0.0,-999.0,93,-99.99,,,0.00,Acu-Link.com,2013-01-07 06:34:00,
2013-01-07 00:49:00,43.7,41.8,30.21,ESE,112,0.0,-999.0,93,-99.99,,,0.00,Acu-Link.com,2013-01-07 06:49:00,
2013-01-07 01:04:00,43.0,41.4,30.21,SSW,202,0.0,-999.0,94,-99.99,,,0.00,Acu-Link.com,2013-01-07 07:04:00,
2013-01-07 01:19:00,42.4,40.8,30.22,SSW,202,0.0,-999.0,94,-99.99,,,0.00,Acu-Link.com,2013-01-07 07:19:00,
2013-01-07 01:34:00,41.4,39.8,30.21,ENE,67,0.0,-999.0,94,-99.99,,,0.00,Acu-Link.com,2013-01-07 07:34:00,
2013-01-07 01:49:00,41.2,39.9,30.20,NE,45,0.0,-999.0,95,-99.99,,,0.00,Acu-Link.com,2013-01-07 07:49:00,
2013-01-07 02:04:00,40.6,39.3,30.19,NE,45,0.0,-999.0,95,-99.99,,,0.00,Acu-Link.com,2013-01-07 08:04:00,
2013-01-07 02:19:00,40.6,39.6,30.18,West,270,0.0,-999.0,96,-99.99,,,0.00,Acu-Link.com,2013-01-07 08:19:00,
2013-01-07 02:35:00,41.5,41.0,30.18,NNE,22,1.7,-999.0,98,-99.99,,,0.00,Acu-Link.com,2013-01-07 08:35:00,
2013-01-07 02:50:00,43.5,43.2,30.17,NNE,22,1.1,-999.0,99,-99.99,,,0.00,Acu-Link.com,2013-01-07 08:50:00,
2013-01-07 03:08:00,43.9,43.6,30.17,NNE,22,0.0,-999.0,99,-99.99,,,0.00,Acu-Link.com,2013-01-07 09:08:00,
2013-01-07 03:23:00,44.8,44.5,30.17,NNW,337,1.1,-999.0,99,-99.99,,,0.00,Acu-Link.com,2013-01-07 09:23:00,
2013-01-07 03:39:00,44.8,44.3,30.17,NE,45,1.7,-999.0,98,-99.99,,,0.00,Acu-Link.com,2013-01-07 09:39:00,
2013-01-07 03:54:00,44.4,43.9,30.16,NNE,22,1.7,-999.0,98,-99.99,,,0.00,Acu-Link.com,2013-01-07 09:54:00,
2013-01-07 04:09:00,44.6,44.1,30.16,NW,315,1.7,-999.0,98,-99.99,,,0.00,Acu-Link.com,2013-01-07 10:09:00,
2013-01-07 04:24:00,44.8,44.0,30.16,NW,315,1.7,-999.0,97,-99.99,,,0.00,Acu-Link.com,2013-01-07 10:24:00,
2013-01-07 04:39:00,44.4,43.6,30.15,ESE,112,1.7,-999.0,97,-99.99,,,0.00,Acu-Link.com,2013-01-07 10:39:00,
2013-01-07 04:55:00,44.6,43.8,30.15,NNE,22,1.1,-999.0,97,-99.99,,,0.00,Acu-Link.com,2013-01-07 10:55:00,
2013-01-07 05:10:00,44.8,44.0,30.14,ENE,67,1.7,-999.0,97,-99.99,,,0.00,Acu-Link.com,2013-01-07 11:10:00,
2013-01-07 05:25:00,44.2,43.4,30.14,NNE,22,0.0,-999.0,97,-99.99,,,0.00,Acu-Link.com,2013-01-07 11:25:00,
2013-01-07 05:40:00,44.2,43.7,30.14,NNE,22,1.7,-999.0,98,-99.99,,,0.00,Acu-Link.com,2013-01-07 11:40:00,
2013-01-07 05:55:00,44.2,43.7,30.14,NNE,22,1.1,-999.0,98,-99.99,,,0.00,Acu-Link.com,2013-01-07 11:55:00,
2013-01-07 06:10:00,44.2,43.7,30.14,NW,315,2.2,-999.0,98,-99.99,,,0.00,Acu-Link.com,2013-01-07 12:10:00,
2013-01-07 06:25:00,44.4,43.9,30.14,NNE,22,2.2,-999.0,98,-99.99,,,0.00,Acu-Link.com,2013-01-07 12:25:00,
2013-01-07 06:40:00,44.1,43.6,30.14,North,0,3.2,-999.0,98,-99.99,,,0.00,Acu-Link.com,2013-01-07 12:40:00,
2013-01-07 06:55:00,44.1,43.6,30.13,NNW,337,1.7,-999.0,98,-99.99,,,0.00,Acu-Link.com,2013-01-07 12:55:00,
2013-01-07 07:11:00,44.1,43.8,30.13,North,0,1.7,-999.0,99,-99.99,,,0.00,Acu-Link.com,2013-01-07 13:11:00,
2013-01-07 07:26:00,44.1,43.8,30.13,NNE,22,2.2,-999.0,99,-99.99,,,0.00,Acu-Link.com,2013-01-07 13:26:00,
2013-01-07 07:41:00,44.6,44.3,30.13,East,90,2.7,-999.0,99,-99.99,,,0.00,Acu-Link.com,2013-01-07 13:41:00,
2013-01-07 07:56:00,45.7,45.2,30.14,ENE,67,3.2,-999.0,98,-99.99,,,0.00,Acu-Link.com,2013-01-07 13:56:00,
2013-01-07 08:11:00,46.9,45.8,30.15,NW,315,2.2,-999.0,96,-99.99,,,0.00,Acu-Link.com,2013-01-07 14:11:00,
2013-01-07 08:26:00,49.6,47.1,30.15,NNW,337,3.2,-999.0,91,-99.99,,,0.00,Acu-Link.com,2013-01-07 14:26:00,
2013-01-07 08:41:00,51.1,47.4,30.15,North,0,4.2,-999.0,87,-99.99,,,0.00,Acu-Link.com,2013-01-07 14:41:00,
2013-01-07 08:56:00,51.3,46.9,30.15,SSW,202,3.7,-999.0,85,-99.99,,,0.00,Acu-Link.com,2013-01-07 14:56:00,
2013-01-07 09:11:00,51.1,46.7,30.14,NNE,22,5.3,-999.0,85,-99.99,,,0.00,Acu-Link.com,2013-01-07 15:11:00,
2013-01-07 09:26:00,51.8,46.8,30.15,NNE,22,4.2,-999.0,83,-99.99,,,0.00,Acu-Link.com,2013-01-07 15:26:00,
2013-01-07 09:42:00,54.5,47.8,30.15,NE,45,2.7,-999.0,78,-99.99,,,0.00,Acu-Link.com,2013-01-07 15:42:00,
2013-01-07 09:57:00,54.9,48.2,30.15,NE,45,3.2,-999.0,78,-99.99,,,0.00,Acu-Link.com,2013-01-07 15:57:00,
2013-01-07 10:12:00,55.4,48.3,30.15,NE,45,2.7,-999.0,77,-99.99,,,0.00,Acu-Link.com,2013-01-07 16:12:00,
2013-01-07 10:27:00,56.5,49.0,30.14,NE,45,5.3,-999.0,76,-99.99,,,0.00,Acu-Link.com,2013-01-07 16:27:00,
2013-01-07 10:42:00,58.3,49.7,30.14,NE,45,3.7,-999.0,73,-99.99,,,0.00,Acu-Link.com,2013-01-07 16:42:00,
2013-01-07 10:57:00,58.6,50.0,30.14,NE,45,5.3,-999.0,73,-99.99,,,0.00,Acu-Link.com,2013-01-07 16:57:00,
2013-01-07 11:12:00,58.8,50.2,30.13,NE,45,5.3,-999.0,73,-99.99,,,0.00,Acu-Link.com,2013-01-07 17:12:00,
2013-01-07 11:27:00,57.9,49.7,30.12,NNE,22,5.3,-999.0,74,-99.99,,,0.00,Acu-Link.com,2013-01-07 17:27:00,
2013-01-07 11:42:00,59.0,50.0,30.11,NE,45,3.2,-999.0,72,-99.99,,,0.00,Acu-Link.com,2013-01-07 17:42:00,
2013-01-07 11:58:00,58.6,50.3,30.10,NE,45,4.7,-999.0,74,-99.99,,,0.00,Acu-Link.com,2013-01-07 17:58:00,
2013-01-07 12:13:00,59.2,50.9,30.09,NNE,22,4.2,-999.0,74,-99.99,,,0.00,Acu-Link.com,2013-01-07 18:13:00,
2013-01-07 12:28:00,60.1,51.0,30.06,North,0,4.2,-999.0,72,-99.99,,,0.00,Acu-Link.com,2013-01-07 18:28:00,
2013-01-07 12:43:00,60.4,52.1,30.05,NE,45,5.8,-999.0,74,-99.99,,,0.00,Acu-Link.com,2013-01-07 18:43:00,
2013-01-07 12:58:00,60.1,52.1,30.03,North,0,4.2,-999.0,75,-99.99,,,0.00,Acu-Link.com,2013-01-07 18:58:00,
2013-01-07 13:13:00,60.3,52.7,30.02,East,90,5.8,-999.0,76,-99.99,,,0.00,Acu-Link.com,2013-01-07 19:13:00,
2013-01-07 13:28:00,61.0,52.7,30.01,NE,45,3.7,-999.0,74,-99.99,,,0.00,Acu-Link.com,2013-01-07 19:28:00,
2013-01-07 13:43:00,59.9,52.3,30.01,NNE,22,2.7,-999.0,76,-99.99,,,0.00,Acu-Link.com,2013-01-07 19:43:00,
2013-01-07 13:58:00,59.9,52.3,29.99,NE,45,5.8,-999.0,76,-99.99,,,0.00,Acu-Link.com,2013-01-07 19:58:00,
2013-01-07 14:14:00,60.1,52.9,29.99,NE,45,2.7,-999.0,77,-99.99,,,0.00,Acu-Link.com,2013-01-07 20:14:00,
2013-01-07 14:29:00,60.1,53.2,29.98,East,90,3.7,-999.0,78,-99.99,,,0.00,Acu-Link.com,2013-01-07 20:29:00,
2013-01-07 14:44:00,59.7,53.5,29.98,NE,45,6.3,-999.0,80,-99.99,,,0.00,Acu-Link.com,2013-01-07 20:44:00,
2013-01-07 14:59:00,59.5,53.3,29.98,East,90,4.2,-999.0,80,-99.99,,,0.00,Acu-Link.com,2013-01-07 20:59:00,
2013-01-07 15:14:00,59.9,54.1,29.98,East,90,2.7,-999.0,81,-99.99,,,0.00,Acu-Link.com,2013-01-07 21:14:00,
2013-01-07 15:29:00,59.5,54.0,29.97,NE,45,4.2,-999.0,82,-99.99,,,0.00,Acu-Link.com,2013-01-07 21:29:00,
2013-01-07 15:44:00,59.0,54.2,29.97,East,90,7.3,-999.0,84,-99.99,,,0.00,Acu-Link.com,2013-01-07 21:44:00,
2013-01-07 15:59:00,59.4,54.6,29.98,NNE,22,3.2,-999.0,84,-99.99,,,0.00,Acu-Link.com,2013-01-07 21:59:00,
2013-01-07 16:14:00,58.8,54.6,29.98,NE,45,3.2,-999.0,86,-99.99,,,0.00,Acu-Link.com,2013-01-07 22:14:00,
2013-01-07 16:30:00,58.5,54.6,29.98,ENE,67,5.3,-999.0,87,-99.99,,,0.00,Acu-Link.com,2013-01-07 22:30:00,
2013-01-07 16:45:00,58.1,54.6,29.98,NE,45,3.7,-999.0,88,-99.99,,,0.00,Acu-Link.com,2013-01-07 22:45:00,
2013-01-07 17:00:00,57.9,54.7,29.98,East,90,3.7,-999.0,89,-99.99,,,0.00,Acu-Link.com,2013-01-07 23:00:00,
2013-01-07 17:15:00,57.7,54.8,29.97,NNE,22,4.7,-999.0,90,-99.99,,,0.00,Acu-Link.com,2013-01-07 23:15:00,
2013-01-07 17:30:00,57.7,55.1,29.97,NE,45,3.7,-999.0,91,-99.99,,,0.00,Acu-Link.com,2013-01-07 23:30:00,
2013-01-07 17:45:00,57.4,55.1,29.98,NE,45,4.7,-999.0,92,-99.99,,,0.00,Acu-Link.com,2013-01-07 23:45:00,
2013-01-07 18:00:00,57.4,55.1,29.98,NE,45,3.2,-999.0,92,-99.99,,,0.00,Acu-Link.com,2013-01-08 00:00:00,
2013-01-07 18:15:00,57.2,55.2,29.97,NNE,22,4.7,-999.0,93,-99.99,,,0.00,Acu-Link.com,2013-01-08 00:15:00,
2013-01-07 18:30:00,56.8,55.4,29.97,NE,45,3.2,-999.0,95,-99.99,,,0.00,Acu-Link.com,2013-01-08 00:30:00,
2013-01-07 18:46:00,56.7,55.6,29.98,North,0,4.7,-999.0,96,-99.99,,,0.00,Acu-Link.com,2013-01-08 00:46:00,
2013-01-07 19:01:00,56.3,55.5,29.98,NNE,22,2.2,-999.0,97,-99.99,,,0.00,Acu-Link.com,2013-01-08 01:01:00,
2013-01-07 19:16:00,55.9,55.3,29.97,ENE,67,3.2,-999.0,98,-99.99,,,0.00,Acu-Link.com,2013-01-08 01:16:00,
2013-01-07 19:31:00,55.9,55.3,29.96,NNE,22,3.7,-999.0,98,-99.99,,,0.00,Acu-Link.com,2013-01-08 01:31:00,
2013-01-07 19:46:00,55.8,55.5,29.96,NNE,22,4.7,-999.0,99,-99.99,,,0.00,Acu-Link.com,2013-01-08 01:46:00,
2013-01-07 20:01:00,55.6,55.3,29.95,NNE,22,3.7,-999.0,99,-99.99,,,0.00,Acu-Link.com,2013-01-08 02:01:00,
2013-01-07 20:16:00,55.6,55.3,29.96,WNW,292,2.7,-999.0,99,-99.99,,,0.01,Acu-Link.com,2013-01-08 02:16:00,
2013-01-07 20:31:00,55.4,55.1,29.95,NNE,22,4.2,-999.0,99,-99.99,,,0.01,Acu-Link.com,2013-01-08 02:31:00,
2013-01-07 20:46:00,55.4,55.1,29.94,NE,45,2.7,-999.0,99,-99.99,,,0.01,Acu-Link.com,2013-01-08 02:46:00,
2013-01-07 21:02:00,55.4,55.1,29.94,East,90,5.3,-999.0,99,-99.99,,,0.01,Acu-Link.com,2013-01-08 03:02:00,
2013-01-07 21:17:00,55.4,55.1,29.94,NNE,22,4.7,-999.0,99,-99.99,,,0.01,Acu-Link.com,2013-01-08 03:17:00,
2013-01-07 21:32:00,55.4,55.1,29.94,East,90,3.2,-999.0,99,-99.99,,,0.01,Acu-Link.com,2013-01-08 03:32:00,
2013-01-07 21:47:00,55.4,55.1,29.93,East,90,3.2,-999.0,99,-99.99,,,0.01,Acu-Link.com,2013-01-08 03:47:00,
2013-01-07 22:02:00,55.8,55.5,29.92,ENE,67,5.8,-999.0,99,-99.99,,,0.01,Acu-Link.com,2013-01-08 04:02:00,
2013-01-07 22:17:00,56.1,55.8,29.91,NE,45,4.7,-999.0,99,-99.99,,,0.01,Acu-Link.com,2013-01-08 04:17:00,
2013-01-07 22:33:00,56.3,56.0,29.91,ENE,67,7.8,-999.0,99,-99.99,,,0.01,Acu-Link.com,2013-01-08 04:33:00,
2013-01-07 22:48:00,56.3,56.0,29.91,ENE,67,9.4,-999.0,99,-99.99,,,0.01,Acu-Link.com,2013-01-08 04:48:00,
2013-01-07 23:03:00,56.3,56.0,29.92,ENE,67,6.8,-999.0,99,-99.99,,,0.01,Acu-Link.com,2013-01-08 05:03:00,
2013-01-07 23:18:00,56.3,56.0,29.92,NE,45,2.7,-999.0,99,-99.99,,,0.01,Acu-Link.com,2013-01-08 05:18:00,
2013-01-07 23:33:00,56.3,56.0,29.91,NE,45,5.3,-999.0,99,-99.99,,,0.01,Acu-Link.com,2013-01-08 05:33:00,
2013-01-07 23:48:00,56.1,55.8,29.90,NNE,22,4.7,-999.0,99,-99.99,,,0.01,Acu-Link.com,2013-01-08 05:48:00,